Weather History for KSPI - October, 2013

Change the Weather History Date:

Friday, October 25, 2013

  Actual Average Record
Temperature  
Mean Temperature 38 °F 52 °F  
Max Temperature 54 °F 63 °F 86 °F (1940)
Min Temperature 21 °F 42 °F 20 °F (1887)
Degree Days  
Heating Degree Days 27 13  
Month to date heating degree days 268 243  
Since 1 July heating degree days 318 324  
Cooling Degree Days 0 0  
Month to date cooling degree days 45 19  
Year to date cooling degree days 1145 1118  
Moisture  
Dew Point 25 °F    
Average Humidity 61    
Maximum Humidity 92    
Minimum Humidity 29    
Precipitation  
Precipitation 0.00 in 0.10 in 2.06 in (1932)
Month to date precipitation 1.33 2.53  
Year to date precipitation 33.25 31.08  
Snow  
Snow 0.00 in 0.00 in T in (1980)
Month to date snowfall T 0.0  
Since 1 July snowfall T 0.0  
Since 1 September snowfall T 0.0  
Snow Depth 0.00 in    
Sea Level Pressure  
Sea Level Pressure 30.39 in    
Wind  
Wind Speed 8 mph (SW)    
Max Wind Speed 16 mph    
Max Gust Speed 23 mph    
Visibility 10 miles    
Events      
T = Trace of Precipitation, MM = Missing Value Source: NWS Daily Summary

Daily Weather History Graph

Daily Weather History Graph

Search for Another Location

Airport or City:

Trip Planner

Search our weather history database for the weather conditions in past years. The results will help you decide how hot, cold, wet, or windy it might be!

Date:

Astronomy

Oct. 25, 2013 Rise Set
Actual Time 7:20 AM CDT 6:04 PM CDT
Civil Twilight 6:52 AM CDT 6:32 PM CDT
Nautical Twilight 6:20 AM CDT 7:04 PM CDT
Astronomical Twilight 5:49 AM CDT 7:35 PM CDT
Moon 11:24 PM CDT 1:00 PM CDT
Length of Visible Light 11h 40m
Length of Day
10h 44m
Waning Gibbous, 62% of the Moon is Illuminated
Oct 25
Waning Gibbous
Oct 26
Last Quarter
Nov 3
New
Nov 9
First Quarter
Nov 17
Full

Hourly Weather History & Observations

Time (CDT) Temp. Windchill Dew Point Humidity Pressure Visibility Wind Dir Wind Speed Gust Speed Precip Events Conditions
12:52 AM 26.1 °F 18.4 °F 21.9 °F 84% 30.42 in 10.0 mi WSW 6.9 mph - N/A   Clear
1:52 AM 27.0 °F 21.6 °F 21.9 °F 81% 30.43 in 10.0 mi WSW 4.6 mph - N/A   Clear
2:52 AM 26.1 °F 19.4 °F 21.9 °F 84% 30.44 in 10.0 mi WSW 5.8 mph - N/A   Clear
3:52 AM 26.1 °F 20.5 °F 21.9 °F 84% 30.44 in 10.0 mi WSW 4.6 mph - N/A   Clear
4:52 AM 26.1 °F 21.9 °F 21.9 °F 84% 30.46 in 10.0 mi WSW 3.5 mph - N/A   Clear
5:52 AM 25.0 °F - 21.0 °F 85% 30.47 in 10.0 mi Calm Calm - N/A   Clear
6:52 AM 21.9 °F - 19.9 °F 92% 30.48 in 10.0 mi Calm Calm - N/A   Clear
7:52 AM 23.0 °F 15.8 °F 19.9 °F 88% 30.49 in 10.0 mi WSW 5.8 mph - N/A   Clear
8:52 AM 32.0 °F 28.7 °F 27.0 °F 82% 30.50 in 10.0 mi SW 3.5 mph - N/A   Clear
9:52 AM 37.9 °F 34.4 °F 30.0 °F 73% 30.51 in 10.0 mi SW 4.6 mph - N/A   Clear
10:52 AM 46.0 °F 41.4 °F 30.0 °F 54% 30.49 in 10.0 mi WSW 9.2 mph - N/A   Clear
11:52 AM 48.9 °F - 28.9 °F 46% 30.48 in 10.0 mi SW 9.2 mph - N/A   Clear
12:52 PM 50.0 °F - 27.0 °F 41% 30.45 in 10.0 mi West 9.2 mph - N/A   Clear
1:52 PM 53.1 °F - 25.0 °F 34% 30.41 in 10.0 mi WSW 12.7 mph 19.6 mph N/A   Clear
2:52 PM 53.1 °F - 25.0 °F 34% 30.38 in 10.0 mi West 10.4 mph 16.1 mph N/A   Clear
3:52 PM 53.1 °F - 23.0 °F 31% 30.35 in 10.0 mi WSW 10.4 mph - N/A   Clear
4:52 PM 52.0 °F - 23.0 °F 32% 30.32 in 10.0 mi WSW 9.2 mph - N/A   Clear
5:52 PM 48.9 °F - 23.0 °F 36% 30.31 in 10.0 mi SW 5.8 mph - N/A   Clear
6:52 PM 43.0 °F 38.2 °F 25.0 °F 49% 30.30 in 10.0 mi SSW 8.1 mph - N/A   Clear
7:52 PM 44.1 °F 39.0 °F 27.0 °F 51% 30.28 in 10.0 mi SSW 9.2 mph - N/A   Clear
8:52 PM 44.1 °F 37.7 °F 27.0 °F 51% 30.25 in 10.0 mi SSW 12.7 mph - N/A   Clear
9:52 PM 43.0 °F 36.8 °F 26.1 °F 51% 30.23 in 10.0 mi SSW 11.5 mph 20.7 mph N/A   Clear
10:52 PM 42.1 °F 34.9 °F 26.1 °F 53% 30.22 in 10.0 mi SSW 13.8 mph 20.7 mph N/A   Clear
11:52 PM 41.0 °F 33.9 °F 26.1 °F 55% 30.20 in 10.0 mi SSW 12.7 mph - N/A   Clear